Regional Weather Roundup
Issued by NWS Wakefield, VA

Home | Current Version | Previous Version | Text Only | Print | Product List | Glossary Off
Versions: 1 2 3 4 5 6 7 8 9 10 11 12 13 14 15 16 17 18 19 20 21 22 23 24 25 26 27 28 29 30 31 32 33 34 35 36 37 38 39 40 41 42 43 44 45 46 47 48 49 50

000
ASUS41 KAKQ 260414
RWRAKQ

REGIONAL WEATHER ROUNDUP
NATIONAL WEATHER SERVICE WAKEFIELD VA
1200 AM EDT THU MAR 26 2015

Note: "fair" indicates few or no clouds below 12,000 feet with no
significant weather and/or obstructions to visibility. * = Denotes
station may not report precipitation (e.g., rain,snow,etc.),
thunder or fog.

VAZ042-051-052>054-056-260500-
NORTHERN VIRGINIA

CITY           SKY/WX    TMP DP  RH WIND       PRES   REMARKS
WASH NATIONAL  MOCLDY    50  38  63 S8        30.15F
DULLES         FAIR      46  35  65 S3        30.13F
FORT BELVOIR   CLOUDY    47  40  76 CALM      30.15F
QUANTICO       CLOUDY    49  43  80 SW5       30.16F
FREDERICKSBRG* CLOUDY    49  39  67 S3        30.14F
STAFFORD*      CLOUDY    47  36  66 CALM      30.19F
WARRENTON      CLOUDY    47  42  81 CALM      30.13F
CULPEPER*      FAIR      46  37  71 CALM      30.14F
MANASSAS*      CLOUDY    50  39  66 S6        30.14F
LEESBURG*      FAIR      45  39  81 S5        30.13F
WINCHESTER     FAIR      48  41  76 SW7       30.08F
FRONT ROYAL*   FAIR      54  46  76 SW10G17   30.07F
LURAY*         FAIR      52  48  87 S8        30.11F
$$

VAZ048-049-060>072-079>083-260500-
CENTRAL AND SOUTH CENTRAL VIRGINIA

CITY           SKY/WX    TMP DP  RH WIND       PRES   REMARKS
RICHMOND       FAIR      51  41  68 CALM      30.16F
CHESTERFIELD*  MOCLDY    50  34  53 CALM      30.17F
PETERSBURG*    MOCLDY    50  42  74 CALM      30.16F
HANOVER        CLOUDY    47  40  76 CALM      30.17F
TAPPAHANNOCK*  MOCLDY    50  38  64 CALM      30.17F
QUINTON*       FAIR      50  39  66 MISG      30.16F
CHARLOTTSVILLE CLOUDY    48  38  68 CALM      30.12F
GORDONSVILLE*  CLOUDY    47  38  71 S5        30.13F
ORANGE*        CLOUDY    48  39  71 SE6       30.15F
LOUISA*        CLOUDY    48  37  66 CALM      30.14F
BUMPASS*       CLOUDY    47  38  69 CALM      30.16F
FARMVILLE*     MOCLDY    50  41  71 CALM      30.15F
CREWE*         CLOUDY    51  45  79 CALM      30.15F
FORT PICKETT*  CLOUDY    52  43  72 S6        30.16F
CHASE CITY*    CLOUDY    54  52  95 CALM      30.15F
CLARKSVILLE*   CLOUDY    52  46  82 CALM      30.16S
SOUTH HILL*    CLOUDY    49  46  87 CALM      30.22F
LAWRENCEVILLE* FAIR      51  47  86 CALM      30.16F
EMPORIA*       MOCLDY    52  46  82 CALM      30.18F
$$

VAZ088>098-260500-
SOUTHEAST VIRGINIA

CITY           SKY/WX    TMP DP  RH WIND       PRES   REMARKS
NORFOLK        MOCLDY    63  55  75 S15       30.16F
VIRGINIA BEACH CLOUDY    64  56  75 S9        30.17F
NORFOLK NAVAL  CLOUDY    67  56  67 S10G17    30.16F
WEST POINT*    MOCLDY    53  46  77 CALM      30.18F
SALUDA*        MOCLDY    51  48  90 CALM      30.16F
NEWPORT NEWS   MOCLDY    63  54  72 S7        30.17
LANGLEY AFB    CLOUDY    59  55  85 SW5       30.15F
FORT EUSTIS    MOCLDY    59  56  91 S5        30.14F
WILLIAMSBURG*  FAIR      57  54  88 CALM      30.17F
HR EXEC AP*    MOCLDY    63  55  77 S10       30.17F
FRANKLIN*      MOCLDY    63  56  80 S8        30.17F
WAKEFIELD      MOCLDY    54  50  86 CALM      30.17F
$$

VAZ020-022-025-037-045-260500-
WEST CENTRAL AND SOUTHWEST VIRGINIA

CITY           SKY/WX    TMP DP  RH WIND       PRES   REMARKS
STAUNTON*      CLOUDY    50  44  79 CALM      30.13F
WAYNESBORO*    MOCLDY    44  42  95 CALM      30.12F
HOT SPRINGS VA FAIR      48  48 100 SW9       30.10F
LYNCHBURG      FAIR      44  40  85 CALM      30.16F
DANVILLE       MOCLDY    52  45  77 N3        30.15F
SOUTH BOSTON*  CLOUDY    52  46  79 CALM      30.15F
MARTINSVILLE   CLOUDY    51  51 100 CALM      30.17F
ROANOKE        CLOUDY    49  41  74 CALM      30.16F
BLACKSBURG     CLOUDY    47  42  81 E5        30.16F
DUBLIN*        CLOUDY    57  55  92 CALM      30.14F
MARION*        CLOUDY    56  50  79 CALM      30.14S
HILLSVILLE*    CLOUDY    53  52  95 S9        30.14F FOG
RICHLANDS*     CLOUDY    60  47  62 CALM      30.08S
WISE*          CLOUDY    61  46  59 S8        30.08S
ABINGDON*      CLOUDY    61  51  70 CALM      30.08S
$$

MDZ021>025-VAZ099-100-260500-
SOUTHERN MARYLAND AND THE DELMARVA PENINSULA

CITY           SKY/WX    TMP DP  RH WIND       PRES   REMARKS
PATUXENT RIVER MOCLDY    43  39  86 CALM      30.16F
BAY BRIDGE APT   N/A     41  37  87 SE3       30.16F
LEONARDTOWN    MOCLDY    45  41  87 CALM      30.17F
DOVER          CLOUDY    43  43 100 CALM      30.15F
GEORGETOWN     MOCLDY    53  52  96 SW6       30.15F
EASTON         FOG       44  44 100 CALM      30.19F VSB 3/4
CAMBRIDGE      MOCLDY    45  41  87 CALM      30.16F
SALISBURY      CLOUDY   N/A N/A N/A S3        30.15F
OCEAN CITY     MOCLDY    53  51  93 SW12G18   30.16F
WALLOPS ISLAND MOCLDY    53  52  96 SW9       30.17F
ACCOMACK*      MOCLDY    54  50  87 S8        30.16F
$$

NCZ012>017-030>032-260500-
NORTH CENTRAL AND EASTERN NORTH CAROLINA

CITY           SKY/WX    TMP DP  RH WIND       PRES   REMARKS
ROANOKE RAPIDS DRIZZLE   55  54  94 CALM      30.17F
RALEIGH        LGT RAIN  58  51  78 CALM      30.16F
ELIZABETH CITY MOCLDY    62  57  83 S5        30.20F
AHOSKIE*       CLOUDY    60  55  85 CALM      30.17F
EDENTON*       CLOUDY    62  57  83 S8        30.18F
CURRITUCK*     CLOUDY    60  56  87 CALM      30.21F
KILL DEVIL HLS MOCLDY    60  57  89 S3        30.21S
MANTEO         CLOUDY    58  56  93 S5        30.22F
CAPE HATTERAS  FAIR      63  56  78 S12       30.22F
TARBORO*       CLOUDY    65  58  77 SE3       30.17F
GOLDSBORO      MOCLDY    66  65  99 E3        30.14F
WASHINGTON     FAIR      63  57  82 SE7       30.18F
GREENVILLE     CLOUDY    64  59  82 S9        30.18F
NEW BERN       MOCLDY    63  58  83 SE5       30.19F
WILMINGTON     FAIR      67  62  84 SE5       30.15F
$$

VAZ048-260500-
ELSEWHERE

CITY           SKY/WX    TMP DP  RH WIND       PRES   REMARKS
HARRISBURG PA  CLOUDY    41  34  76 CALM      30.14S
BALTIMORE      MOCLDY    43  36  76 CALM      30.14F
ANNAPOLIS      CLOUDY    42  36  79 SE3       30.15F
ANDREWS AFB    MOCLDY    46  40  79 S7        30.13F
PHILADELPHIA   CLOUDY    42  39  89 NE3       30.16F
HENDERSON NC   CLOUDY    55  44  67 E5        30.16F HAZE
GREENSBORO     CLOUDY    57  47  69 NE5       30.14F
ROCKY MOUNT    CLOUDY    61  60  97 CALM      30.16F FOG
$$

VAZ100-260500-
MARINE

STATION/POSITION TIME  TEMP    WIND        PRES    WAVE   SWELL
                       AIR SEA DIR/SP/G            HT/PER HT/PER
                 (UTC) (F)     (DEG/KT/KT) (MB)    (FT/S) (FT/S)
BRANDYWINE LGT   0300   47 39  110/  5/  5 1021.7S
CAPE MAY NJ      0300   48 41   60/  2/  3 1021.3S
LEWES DE         0300   49 40  200/  5/  8 1021.2F
15NM E FENWICK I 0350   47 40              1020.7F   3/ 5
OCEAN-CITY-INLET 0300   48 40  220/ 12/ 13 1021.5F
WACHAPREAGUE VA  0300   50 48  210/  7/ 10 1021.7F
THOMAS POINT MD  0400                        N/A
COVE POINT MD    0300   41     350/  7/  7 1021.5F
SOLOMONS ISLAND  0300      42                N/A
BISHOPS HEAD MD  0306          290/  5/  5   N/A
PINEY POINT MD   0306          340/  5/  6   N/A
CAMBRIDGE MD     0300   45 42   CALM  /  1 1021.3F
LEWISETTA VA     0300   47 46              1021.4F
RAPPAHANNOCK LGT 0300          160/ 12/ 13 1021.9F
STINGRAY PT      0400   46 44  180/  2/  4   N/A
YORK RVR RNG VA  0300   49     180/ 13/ 13 1020.9F
YORKTOWN VA      0300   51 47  180/  3/  5 1021.2F
DOMINION TERM VA 0300   58     160/  3/  5 1021.9F
KIPTOPEKE VA     0300      50  150/  9/ 10   N/A
CHES BAY BRIDGE  0300   56 44  160/ 11/ 12 1021.5F
CAPE HENRY VA    0300   60     170/  9/ 15 1020.8F
CHESAPEAKE LGHT  0300   50     200/ 21/ 21 1022.9R
WILLOUBY STN VA  0300   61     190/ 12/ 14 1022.3F
S CRANEY ISL VA  0300          190/  7/ 10 1021.9F
CAPE HENRY BUOY  0328      40                N/A     3/ 7
1ST LANDING BUOY 0400   57     200/ 14/ 17 1020.9F   2/ 3
OFFSHORE WE BUOY 0311      40                N/A     3/ 6   2/ 9
64NM E OF VA BCH 0350   58 55  200/ 12/ 14 1022.9F   4/ 6   3/ 6
DUCK PIER NC     0300   60 44  180/  8/ 10 1022.3R
44056 DUCK FRF   0311      42                N/A     4/ 7
OREGON INLET NC  0300   59 51  160/  8/ 12 1023.3S
HATTERAS NC      0300   65 56  170/ 10/ 13 1023.8F
CAPE LOOKOUT NC  0400   64     150/ 14/ 15 1021.9F
$$



USA.gov is the U.S. government's official web portal to all federal, state and local government web resources and services.